Content
SEND FEEDBACK

Daily
Averages
Monthly
Summary
Thailand

PHUKET, THAILAND


Home > Asia > Thailand
Elevation: 33 feet     Latitude: 08 07N     Longitude: 098 19E

WEATHER
 
SELECT A DAY
Number of Records: 227,916;   Date Range: 7/1/96 - 9/3/14
 
SHARE

PRINT THIS DATA

[ ← Previous Day ]
WEATHER ALMANAC - MAY 7, 2013
[ Next Day → ]
[ °C ]   °F
Weather ElementAverageHighLow
Temperature82.9 °F89.6 °F (11:30 am)77 °F (1:30 am)
Dewpoint75.6 °F77 °F (1:00 am)73.4 °F (10:00 am)
Humidity79.2 %96 % (7:00 am)59 % (12:00 pm)
Barometer29.77 in29.86 in (10:30 am)29.71 in (4:00 pm)
Wind Speed3.7 mph11.5 mph (1:30 pm)
Weather ElementAverage
Visibility5.7 mi
Wind DirectionE (95.6 °)

Weather ElementTotal
Precipitation---
Cooling Degree Days18.3 (Base 65)
Growing Degree Days33.3 (Base 50)
Averaged from 51 records on May 7, 2013
WEATHER CONDITIONS BREAKOUT
WIND DIRECTION BREAKOUT
WEATHER BY HOUR - MAY 7, 2013
[ °C ]   °F
Local TimeTemperatureDewpointHumidityBarometerVisibilityWind DirectionWind SpeedGust SpeedPrecipitationEventsConditions
12:30 AM78.8 °F75.2 °F89 %29.77 in4.3 miCalmMostly Cloudy
1:00 AM78.0 °F77.0 °F94 %29.76 in6.0 miCalmPartly Cloudy
1:00 AM78.8 °F75.2 °F89 %29.77 in4.3 miCalmMostly Cloudy
1:30 AM77.0 °F75.2 °F94 %29.77 in4.3 miCalmMostly Cloudy
2:00 AM77.0 °F75.2 °F94 %29.77 in4.3 miVariable1.2 mphMostly Cloudy
2:30 AM77.0 °F75.2 °F94 %29.77 in4.3 miVariable2.3 mphMostly Cloudy
3:00 AM77.0 °F75.2 °F94 %29.74 in4.3 miNorth (10°)3.5 mphMostly Cloudy
3:30 AM77.0 °F75.2 °F94 %29.74 in4.3 miNNE (20°)3.5 mphMostly Cloudy
4:00 AM78.8 °F75.2 °F89 %29.74 in4.3 miVariable1.2 mphMostly Cloudy
4:30 AM78.8 °F75.2 °F89 %29.74 in4.3 miVariable2.3 mphMostly Cloudy
5:00 AM77.0 °F75.2 °F94 %29.74 in4.3 miCalmMostly Cloudy
5:30 AM77.0 °F75.2 °F94 %29.77 in4.3 miVariable1.2 mphMostly Cloudy
6:00 AM78.8 °F75.2 °F89 %29.77 in4.3 miENE (70°)3.5 mphMostly Cloudy
6:30 AM77.0 °F75.2 °F94 %29.77 in5.6 miCalmMostly Cloudy
7:00 AM78.0 °F77.0 °F96 %29.76 in6.0 miCalmScattered Clouds
7:00 AM78.8 °F75.2 °F89 %29.77 in5.6 miCalmMostly Cloudy
7:30 AM80.6 °F77.0 °F89 %29.80 in6.2 miVariable1.2 mphMostly Cloudy
8:00 AM82.4 °F77.0 °F84 %29.83 in6.2 miVariable2.3 mphMostly Cloudy
8:30 AM82.4 °F75.2 °F79 %29.83 in6.2 miEast (100°)6.9 mphMostly Cloudy
9:00 AM84.2 °F75.2 °F74 %29.83 in6.2 miENE (70°)5.8 mphMostly Cloudy
9:30 AM87.8 °F75.2 °F66 %29.83 in6.2 miEast (80°)4.6 mphMostly Cloudy
10:00 AM87.8 °F73.4 °F62 %29.83 in6.2 miENE (70°)4.6 mphMostly Cloudy
10:30 AM87.8 °F75.2 °F66 %29.86 in6.2 miEast (80°)4.6 mphMostly Cloudy
11:00 AM87.8 °F75.2 °F66 %29.86 in6.2 miEast (100°)5.8 mphMostly Cloudy
11:30 AM89.6 °F75.2 °F62 %29.83 in6.2 miEast (80°)6.9 mphMostly Cloudy
12:00 PM89.6 °F73.4 °F59 %29.83 in6.2 miENE (70°)6.9 mphMostly Cloudy
12:30 PM89.6 °F77.0 °F66 %29.80 in6.2 miWest (270°)9.2 mphMostly Cloudy
1:00 PM88.0 °F77.0 °F64 %29.77 in6.0 miWNW (300°)8.1 mphScattered Clouds
1:00 PM89.6 °F75.2 °F62 %29.80 in6.2 miWest (270°)10.4 mphMostly Cloudy
1:30 PM87.8 °F75.2 °F66 %29.77 in6.2 miWest (260°)11.5 mphMostly Cloudy
2:00 PM89.6 °F73.4 °F59 %29.77 in6.2 miWest (260°)8.1 mphMostly Cloudy
2:30 PM87.8 °F73.4 °F62 %29.77 in6.2 miWest (270°)10.4 mphMostly Cloudy
3:00 PM89.6 °F75.2 °F62 %29.74 in6.2 miWNW (290°)8.1 mphMostly Cloudy
3:30 PM87.8 °F73.4 °F62 %29.74 in6.2 miWest (260°)9.2 mphMostly Cloudy
4:00 PM87.8 °F75.2 °F66 %29.71 in6.2 miWest (270°)8.1 mphMostly Cloudy
4:30 PM87.8 °F75.2 °F66 %29.71 in6.2 miWest (270°)9.2 mphMostly Cloudy
5:00 PM87.8 °F75.2 °F66 %29.71 in6.2 miWest (280°)8.1 mphMostly Cloudy
5:30 PM86.0 °F75.2 °F70 %29.71 in6.2 miWest (270°)6.9 mphMostly Cloudy
6:00 PM86.0 °F75.2 °F70 %29.71 in6.2 miWest (270°)5.8 mphMostly Cloudy
6:30 PM84.2 °F75.2 °F74 %29.71 in6.2 miWest (280°)5.8 mphMostly Cloudy
7:00 PM86.0 °F77.0 °F69 %29.71 in6.0 miCalmScattered Clouds
7:00 PM82.4 °F75.2 °F79 %29.71 in6.2 miNNE (20°)3.5 mphMostly Cloudy
7:30 PM82.4 °F77.0 °F84 %29.74 in6.2 miCalmMostly Cloudy
8:00 PM80.6 °F77.0 °F89 %29.74 in6.2 miCalmMostly Cloudy
8:30 PM80.6 °F75.2 °F84 %29.77 in6.2 miCalmMostly Cloudy
9:00 PM80.6 °F77.0 °F89 %29.77 in6.2 miCalmMostly Cloudy
9:30 PM80.6 °F77.0 °F89 %29.77 in6.2 miCalmMostly Cloudy
10:00 PM80.6 °F77.0 °F89 %29.80 in6.2 miCalmMostly Cloudy
10:30 PM80.6 °F77.0 °F89 %29.80 in6.2 miCalmMostly Cloudy
11:00 PM80.6 °F77.0 °F89 %29.83 in6.2 miCalmMostly Cloudy
11:30 PM80.6 °F77.0 °F89 %29.83 in6.2 miCalmMostly Cloudy
Hourly data recorded from VTSP, located miles away from Phuket, Thailand







STORIES FROM OUR PARTNERS